| time (UTC) | temp F | wind direction | speed MPH | gust MPH | rain 1hr in | rain 24hr in | rain mn in | humidity % | barometer mb |
| 20260901111535 | 0 | 0.0 | 0.0 | 0.00 | 0.04 | 0.00 | 1015.2 | ||
| 20260901110031 | 0 | 0.0 | 0.0 | 0.00 | 0.04 | 0.00 | 1015.2 | ||
| 20260901104529 | 0 | 0.0 | 0.0 | 0.00 | 0.04 | 0.00 | 1015.0 | ||
| 20260901103021 | 0 | 0.0 | 0.0 | 0.00 | 0.04 | 0.00 | 1014.8 | ||
| 20260901101517 | 0 | 0.0 | 0.0 | 0.00 | 0.04 | 0.00 | 1014.7 | ||
| 20260901100013 | 0 | 0.0 | 0.0 | 0.00 | 0.04 | 0.00 | 1014.9 | ||
| 20260901094509 | 0 | 0.0 | 0.0 | 0.00 | 0.04 | 0.00 | 1014.8 | ||
| 20260901093004 | 0 | 0.0 | 0.0 | 0.00 | 0.04 | 0.00 | 1014.7 | ||
| 20260901091601 | 0 | 0.0 | 0.0 | 0.00 | 0.04 | 0.00 | 1014.7 | ||
| 20260901084607 | 0 | 0.0 | 0.0 | 0.00 | 0.04 | 0.00 | 1014.6 | ||
| 20260901083050 | 0 | 0.0 | 0.0 | 0.00 | 0.04 | 0.00 | 1014.7 | ||
| 20260901081542 | 0 | 0.0 | 0.0 | 0.00 | 0.04 | 0.00 | 1014.8 | ||
| 20260901080038 | 0 | 0.0 | 0.0 | 0.00 | 0.04 | 0.00 | 1014.8 | ||
| 20260901074536 | 0 | 0.0 | 0.0 | 0.00 | 0.04 | 0.00 | 1015.1 | ||
| 20260901073037 | 0 | 0.0 | 0.0 | 0.00 | 0.04 | 0.00 | 1015.2 | ||
| 20260901071525 | 0 | 0.0 | 0.0 | 0.00 | 0.04 | 0.00 | 1015.2 | ||
| 20260901070028 | 77 | 341 | 0.0 | 0.0 | 0.00 | 0.04 | 0.00 | 93 | 1015.4 |
| 20260901064533 | 77 | 341 | 0.0 | 0.0 | 0.00 | 0.04 | 0.00 | 92 | 1015.3 |
| 20260901063019 | 77 | 341 | 0.0 | 0.0 | 0.00 | 0.04 | 0.00 | 92 | 1015.4 |
| 20260901061521 | 77 | 37 | 0.0 | 0.0 | 0.00 | 0.04 | 0.00 | 92 | 1015.7 |
| 20260901060016 | 77 | 37 | 0.0 | 0.0 | 0.00 | 0.04 | 0.00 | 92 | 1015.6 |
| 20260901054516 | 77 | 37 | 0.0 | 0.0 | 0.00 | 0.04 | 0.00 | 92 | 1015.5 |
| 20260901053015 | 77 | 37 | 0.0 | 0.0 | 0.00 | 0.04 | 0.00 | 92 | 1015.6 |
| 20260901051513 | 77 | 37 | 0.0 | 0.0 | 0.00 | 0.04 | 0.00 | 91 | 1015.8 |
| 20260901050010 | 77 | 37 | 0.0 | 0.0 | 0.00 | 0.04 | 0.00 | 91 | 1016.0 |
| 20260901044508 | 77 | 37 | 0.0 | 0.0 | 0.00 | 0.04 | 0.00 | 91 | 1016.3 |
| 20260901043006 | 77 | 37 | 0.0 | 0.0 | 0.00 | 0.04 | 0.00 | 90 | 1016.4 |
| 20260901041503 | 77 | 37 | 0.0 | 0.0 | 0.00 | 0.04 | 0.00 | 90 | 1016.7 |
| 20260901040121 | 77 | 37 | 0.0 | 0.0 | 0.00 | 0.04 | 0.00 | 90 | 1016.7 |
| 20260901034600 | 77 | 37 | 0.0 | 0.0 | 0.00 | 0.04 | 0.04 | 90 | 1017.0 |
| 20260901033104 | 77 | 37 | 0.0 | 0.0 | 0.00 | 0.04 | 0.04 | 90 | 1017.3 |
| 20260901031609 | 78 | 37 | 0.0 | 0.0 | 0.00 | 0.04 | 0.04 | 90 | 1017.4 |
| 20260901030059 | 78 | 37 | 0.0 | 0.0 | 0.00 | 0.04 | 0.04 | 89 | 1017.3 |
| 20260901024556 | 79 | 32 | 0.0 | 8.0 | 0.00 | 0.04 | 0.04 | 89 | 1017.4 |
| 20260901023052 | 79 | 23 | 0.0 | 6.0 | 0.00 | 0.04 | 0.04 | 92 | 1017.7 |
| 20260901021551 | 79 | 167 | 0.0 | 0.0 | 0.00 | 0.04 | 0.04 | 93 | 1017.2 |
| 20260901020051 | 79 | 166 | 0.0 | 0.0 | 0.00 | 0.04 | 0.04 | 92 | 1017.0 |
| 20260901014550 | 79 | 167 | 0.0 | 0.0 | 0.00 | 0.04 | 0.04 | 92 | 1017.0 |
| 20260901013052 | 79 | 74 | 0.0 | 0.0 | 0.00 | 0.04 | 0.04 | 92 | 1016.7 |
| 20260901011549 | 79 | 74 | 0.0 | 0.0 | 0.00 | 0.04 | 0.04 | 92 | 1016.5 |
| 20260901010048 | 79 | 74 | 0.0 | 0.0 | 0.04 | 0.04 | 0.04 | 91 | 1016.4 |
| 20260901004550 | 80 | 73 | 0.0 | 0.0 | 0.04 | 0.04 | 0.04 | 92 | 1016.3 |
| 20260901003047 | 80 | 73 | 0.0 | 0.0 | 0.04 | 0.04 | 0.04 | 91 | 1015.8 |
| 20260901001546 | 81 | 74 | 0.0 | 0.0 | 0.04 | 0.04 | 0.04 | 88 | 1015.8 |
| 20260901000045 | 82 | 345 | 0.0 | 0.0 | 0.00 | 0.00 | 0.00 | 82 | 1015.8 |
| 20260831234545 | 82 | 72 | 0.0 | 0.0 | 0.00 | 0.00 | 0.00 | 82 | 1015.6 |
| 20260831233044 | 82 | 1 | 0.0 | 0.0 | 0.00 | 0.00 | 0.00 | 83 | 1015.6 |
| 20260831231546 | 83 | 23 | 0.0 | 1.0 | 0.00 | 0.00 | 0.00 | 83 | 1015.7 |
| 20260831230059 | 83 | 4 | 0.0 | 0.0 | 0.00 | 0.00 | 0.00 | 81 | 1015.6 |
| 20260831224543 | 86 | 23 | 0.0 | 1.0 | 0.00 | 0.00 | 0.00 | 79 | 1015.7 |
| 20260831223043 | 87 | 61 | 0.0 | 0.0 | 0.00 | 0.00 | 0.00 | 79 | 1015.6 |
| 20260831221548 | 86 | 60 | 0.0 | 0.0 | 0.00 | 0.00 | 0.00 | 79 | 1015.5 |
| 20260831220041 | 87 | 79 | 0.0 | 0.0 | 0.00 | 0.00 | 0.00 | 78 | 1015.3 |
| 20260831214544 | 87 | 64 | 0.0 | 0.0 | 0.00 | 0.06 | 0.00 | 76 | 1015.1 |
| 20260831213044 | 88 | 54 | 0.0 | 1.0 | 0.00 | 0.06 | 0.00 | 74 | 1015.0 |
| 20260831211543 | 90 | 71 | 0.0 | 0.0 | 0.00 | 0.06 | 0.00 | 71 | 1014.9 |
| 20260831210039 | 92 | 188 | 0.0 | 0.0 | 0.00 | 0.06 | 0.00 | 67 | 1015.3 |
| 20260831204539 | 91 | 148 | 0.0 | 1.0 | 0.00 | 0.06 | 0.00 | 68 | 1015.4 |
| 20260831203042 | 90 | 148 | 0.0 | 0.0 | 0.00 | 0.06 | 0.00 | 69 | 1015.3 |
| 20260831201538 | 88 | 188 | 0.0 | 0.0 | 0.00 | 0.06 | 0.00 | 72 | 1015.4 |
| 20260831200037 | 86 | 188 | 0.0 | 0.0 | 0.00 | 0.06 | 0.00 | 74 | 1015.5 |
| 20260831194612 | 85 | 188 | 0.0 | 0.0 | 0.00 | 0.06 | 0.00 | 74 | 1015.4 |
| 20260831193036 | 84 | 188 | 0.0 | 0.0 | 0.00 | 0.06 | 0.00 | 75 | 1015.7 |
| 20260831191537 | 84 | 197 | 0.0 | 0.0 | 0.00 | 0.06 | 0.00 | 76 | 1015.6 |
| 20260831190036 | 85 | 224 | 0.0 | 0.0 | 0.00 | 0.06 | 0.00 | 74 | 1016.1 |
| 20260831184543 | 86 | 266 | 0.0 | 0.0 | 0.00 | 0.06 | 0.00 | 74 | 1016.4 |
| 20260831183032 | 89 | 319 | 0.0 | 0.0 | 0.00 | 0.06 | 0.00 | 68 | 1015.8 |
| 20260831181534 | 90 | 262 | 0.0 | 0.0 | 0.00 | 0.06 | 0.00 | 68 | 1016.5 |
| 20260831180031 | 89 | 304 | 0.0 | 1.0 | 0.00 | 0.06 | 0.00 | 70 | 1016.5 |
| 20260831174546 | 88 | 1 | 0.0 | 0.0 | 0.00 | 0.06 | 0.00 | 72 | 1016.7 |
| 20260831173029 | 87 | 4 | 0.0 | 1.0 | 0.00 | 0.06 | 0.00 | 72 | 1017.0 |
| 20260831171540 | 91 | 40 | 0.0 | 1.0 | 0.00 | 0.06 | 0.00 | 74 | 1016.9 |
| 20260831170055 | 92 | 187 | 0.0 | 1.0 | 0.00 | 0.06 | 0.00 | 73 | 1016.9 |
| 20260831164532 | 92 | 58 | 0.0 | 0.0 | 0.00 | 0.06 | 0.00 | 73 | 1016.6 |
| 20260831163027 | 91 | 190 | 0.0 | 1.0 | 0.00 | 0.06 | 0.00 | 73 | 1016.8 |
| 20260831161522 | 92 | 177 | 0.0 | 1.0 | 0.00 | 0.06 | 0.00 | 72 | 1017.2 |
| 20260831160029 | 91 | 153 | 0.0 | 0.0 | 0.00 | 0.06 | 0.00 | 74 | 1017.3 |
| 20260831154517 | 90 | 72 | 0.0 | 0.0 | 0.00 | 0.06 | 0.00 | 73 | 1017.4 |
| 20260831153014 | 89 | 153 | 0.0 | 1.0 | 0.00 | 0.06 | 0.00 | 75 | 1017.6 |
| 20260831151511 | 89 | 70 | 0.0 | 1.0 | 0.00 | 0.06 | 0.00 | 77 | 1017.4 |
| 20260831150007 | 89 | 124 | 0.0 | 1.0 | 0.00 | 0.06 | 0.00 | 78 | 1017.3 |
| 20260831144516 | 88 | 70 | 0.0 | 0.0 | 0.00 | 0.06 | 0.00 | 80 | 1017.2 |
| 20260831143001 | 87 | 58 | 0.0 | 0.0 | 0.00 | 0.06 | 0.00 | 83 | 1017.1 |
| 20260831141600 | 86 | 41 | 0.0 | 0.0 | 0.00 | 0.06 | 0.00 | 83 | 1017.1 |
| 20260831140055 | 86 | 82 | 0.0 | 0.0 | 0.00 | 0.06 | 0.00 | 85 | 1016.9 |
| 20260831134553 | 85 | 12 | 0.0 | 0.0 | 0.00 | 0.06 | 0.00 | 87 | 1016.9 |
| 20260831133050 | 85 | 64 | 0.0 | 0.0 | 0.00 | 0.06 | 0.00 | 87 | 1016.9 |
| 20260831131547 | 85 | 64 | 0.0 | 0.0 | 0.00 | 0.06 | 0.00 | 86 | 1016.6 |
| 20260831130045 | 84 | 64 | 0.0 | 0.0 | 0.00 | 0.06 | 0.00 | 86 | 1016.5 |
| 20260831124541 | 82 | 64 | 0.0 | 0.0 | 0.00 | 0.06 | 0.00 | 89 | 1016.5 |
| 20260831123034 | 81 | 64 | 0.0 | 0.0 | 0.00 | 0.06 | 0.00 | 90 | 1016.3 |
| 20260831121531 | 80 | 64 | 0.0 | 0.0 | 0.00 | 0.06 | 0.00 | 90 | 1016.3 |
| 20260831120031 | 79 | 64 | 0.0 | 0.0 | 0.00 | 0.06 | 0.00 | 92 | 1016.3 |
| 20260831114523 | 0 | 0.0 | 0.0 | 0.00 | 0.06 | 0.00 | 1016.2 | ||
| 20260831113020 | 0 | 0.0 | 0.0 | 0.00 | 0.06 | 0.00 | 1016.1 |